Location: *
(51.5000°N, 0.1100°W)
Time: 18:10:20
(UTC+00:00)

Meteor 1-23 Rocket - Pass Details

Date: 25 May 2024
Orbit: 843 x 881 km, 81.3° (Epoch: 16 June)

Event Time Altitude Azimuth Distance (km) Brightness Sun altitude
Exits shadow 00:46:26 25° 213° (SSW) 1,653 5.2 -16.7°
Maximum altitude 00:49:42 61° 286° (WNW) 961 4.5 -16.6°
Drops below altitude 10° 00:55:18 10° 7° (N) 2,495 8.0 -16.4°
Sets 00:57:48 0° 11° (NNE) 3,441 9.2 -16.3°
